Location: Chircca
(13.7944°S, 72.0608°W)
Time: 06:26:37
(UTC+00:00)

Cosmos 2360 Rocket - Pass Details

Date: 14 July 2020
Orbit: 832 x 846 km, 71.0° (Epoch: 14 August)

Event Time Altitude Azimuth Distance (km) Brightness Sun altitude
Rises 10:22:27 0° 359° (N) 3,382 5.6 -12.3°
Reaches altitude 10° 10:25:00 10° 6° (N) 2,451 5.0 -11.7°
Maximum altitude 10:30:18 43° 76° (ENE) 1,172 3.6 -10.5°
Drops below altitude 10° 10:35:36 10° 146° (SE) 2,462 4.8 -9.3°
Sets 10:38:09 0° 152° (SSE) 3,399 5.5 -8.7°
